Location: Gwatt
(46.7204°N, 7.6223°E)
Time: 19:28:27
(UTC+00:00)

Transit 2A - Pass Details

Date: 25 January 2021
Orbit: 600 x 958 km, 66.7° (Epoch: 26 February)

Event Time Altitude Azimuth Distance (km) Brightness Sun altitude
Rises 12:18:32 0° 320° (NW) 2,999 8.7 23.9°
Reaches altitude 10° 12:21:01 10° 313° (NW) 2,039 8.0 23.9°
Maximum altitude 12:25:13 38° 245° (WSW) 943 7.3 23.7°
Drops below altitude 10° 12:29:14 10° 177° (S) 1,941 9.8 23.6°
Sets 12:31:32 0° 169° (S) 2,834 10.1 23.5°
